| time (UTC) | temp C | wind direction | speed KPH | gust KPH | rain 1hr cm | rain 24hr cm | rain mn cm | humidity % | barometer mb |
| 20260506035232 | 12 | 352 | 1.6 | 6.4 | 0.00 | 0.99 | 0.00 | 89 | 1014.6 |
| 20260506034231 | 12 | 308 | 0.0 | 4.8 | 0.00 | 1.02 | 0.00 | 90 | 1014.7 |
| 20260506033235 | 12 | 355 | 1.6 | 4.8 | 0.00 | 1.07 | 0.00 | 91 | 1014.7 |
| 20260506032700 | 13 | 356 | 3.2 | 4.8 | 0.00 | 1.12 | 0.00 | 92 | 1015.1 |
| 20260506031710 | 13 | 0 | 0.0 | 4.8 | 0.00 | 1.19 | 0.00 | 92 | 1014.8 |
| 20260506030220 | 13 | 310 | 0.0 | 1.6 | 0.00 | 1.24 | 0.00 | 92 | 1014.9 |
| 20260506025206 | 13 | 145 | 0.0 | 6.4 | 0.00 | 1.30 | 0.00 | 91 | 1015.1 |
| 20260506024208 | 13 | 5 | 0.0 | 3.2 | 0.00 | 1.32 | 0.00 | 89 | 1015.1 |
| 20260506023210 | 13 | 272 | 1.6 | 4.8 | 0.00 | 1.35 | 0.00 | 89 | 1015.2 |
| 20260506022206 | 13 | 8 | 1.6 | 3.2 | 0.00 | 1.35 | 0.00 | 91 | 1015.3 |
| 20260506021208 | 13 | 350 | 1.6 | 4.8 | 0.00 | 1.37 | 0.00 | 90 | 1015.4 |
| 20260506020206 | 13 | 345 | 1.6 | 3.2 | 0.00 | 1.37 | 0.00 | 90 | 1015.6 |
| 20260506015642 | 13 | 353 | 0.0 | 4.8 | 0.00 | 1.40 | 0.00 | 90 | 1015.6 |
| 20260506014142 | 13 | 344 | 1.6 | 4.8 | 0.00 | 1.40 | 0.00 | 90 | 1015.5 |
| 20260506013617 | 13 | 339 | 3.2 | 4.8 | 0.00 | 1.40 | 0.00 | 91 | 1015.5 |
| 20260506012144 | 13 | 12 | 0.0 | 6.4 | 0.00 | 1.40 | 0.00 | 87 | 1015.8 |
| 20260506011143 | 13 | 352 | 3.2 | 4.8 | 0.00 | 1.40 | 0.00 | 90 | 1015.7 |
| 20260506010142 | 13 | 341 | 4.8 | 6.4 | 0.00 | 1.40 | 0.00 | 89 | 1015.9 |
| 20260506005142 | 13 | 342 | 1.6 | 6.4 | 0.00 | 1.40 | 0.00 | 89 | 1015.7 |
| 20260506004143 | 13 | 343 | 3.2 | 4.8 | 0.00 | 1.40 | 0.00 | 89 | 1015.9 |
| 20260506003142 | 13 | 343 | 3.2 | 6.4 | 0.00 | 1.40 | 0.00 | 88 | 1015.9 |
| 20260506002143 | 13 | 343 | 4.8 | 6.4 | 0.00 | 1.42 | 0.00 | 90 | 1015.9 |
| 20260506001627 | 13 | 357 | 3.2 | 6.4 | 0.00 | 1.42 | 0.00 | 89 | 1015.9 |
| 20260506000625 | 13 | 337 | 6.4 | 6.4 | 0.00 | 1.42 | 0.00 | 92 | 1015.8 |
| 20260505235624 | 13 | 327 | 3.2 | 6.4 | 0.00 | 1.42 | 0.00 | 92 | 1016.0 |
| 20260505234131 | 13 | 26 | 3.2 | 6.4 | 0.00 | 1.42 | 0.00 | 94 | 1016.0 |
| 20260505233130 | 13 | 352 | 4.8 | 4.8 | 0.00 | 1.45 | 0.00 | 95 | 1016.1 |
| 20260505232608 | 13 | 69 | 0.0 | 6.4 | 0.00 | 1.45 | 0.00 | 95 | 1015.9 |
| 20260505232106 | 14 | 17 | 0.0 | 1.6 | 0.00 | 1.45 | 0.00 | 95 | 1015.9 |
| 20260505230131 | 14 | 71 | 0.0 | 3.2 | 0.00 | 1.45 | 0.00 | 95 | 1016.1 |
| 20260505225605 | 14 | 163 | 0.0 | 6.4 | 0.00 | 1.47 | 1.45 | 95 | 1015.9 |
| 20260505224130 | 14 | 229 | 3.2 | 3.2 | 0.00 | 1.50 | 1.45 | 96 | 1015.9 |
| 20260505223130 | 14 | 159 | 1.6 | 4.8 | 0.00 | 1.50 | 1.45 | 96 | 1016.0 |
| 20260505222131 | 14 | 232 | 0.0 | 3.2 | 0.00 | 1.52 | 1.45 | 96 | 1016.1 |
| 20260505221131 | 14 | 14 | 0.0 | 1.6 | 0.00 | 1.55 | 1.45 | 96 | 1016.1 |
| 20260505220131 | 14 | 0 | 0.0 | 1.6 | 0.00 | 1.55 | 1.45 | 96 | 1016.1 |
| 20260505215107 | 14 | 24 | 0.0 | 1.6 | 0.00 | 1.55 | 1.45 | 96 | 1015.9 |
| 20260505214056 | 14 | 144 | 1.6 | 3.2 | 0.00 | 1.55 | 1.45 | 96 | 1016.0 |
| 20260505213534 | 14 | 341 | 1.6 | 1.6 | 0.00 | 1.55 | 1.45 | 96 | 1015.9 |
| 20260505212054 | 14 | 340 | 0.0 | 1.6 | 0.00 | 1.55 | 1.45 | 96 | 1015.8 |
| 20260505211054 | 14 | 20 | 1.6 | 1.6 | 0.00 | 1.55 | 1.45 | 96 | 1015.9 |
| 20260505210120 | 14 | 349 | 0.0 | 3.2 | 0.00 | 1.55 | 1.45 | 96 | 1015.8 |
| 20260505205056 | 14 | 107 | 1.6 | 3.2 | 0.00 | 1.55 | 1.45 | 96 | 1015.7 |
| 20260505204055 | 14 | 24 | 1.6 | 1.6 | 0.00 | 1.55 | 1.45 | 96 | 1015.7 |
| 20260505203057 | 14 | 123 | 0.0 | 3.2 | 0.00 | 1.55 | 1.45 | 96 | 1015.8 |
| 20260505202054 | 15 | 2 | 0.0 | 4.8 | 0.00 | 1.55 | 1.45 | 95 | 1015.5 |
| 20260505201054 | 15 | 184 | 4.8 | 4.8 | 0.00 | 1.57 | 1.45 | 95 | 1015.6 |
| 20260505200104 | 15 | 129 | 0.0 | 3.2 | 0.00 | 1.60 | 1.45 | 95 | 1015.5 |
| 20260505195532 | 15 | 193 | 0.0 | 4.8 | 0.00 | 1.60 | 1.45 | 94 | 1015.4 |
| 20260505194055 | 15 | 232 | 1.6 | 3.2 | 0.00 | 1.60 | 1.45 | 94 | 1015.3 |
| 20260505193055 | 15 | 201 | 3.2 | 9.7 | 0.00 | 1.60 | 1.45 | 93 | 1015.1 |
| 20260505192055 | 15 | 246 | 4.8 | 11.3 | 0.00 | 1.60 | 1.45 | 92 | 1014.9 |
| 20260505191539 | 15 | 78 | 0.0 | 6.4 | 0.00 | 1.60 | 1.45 | 94 | 1015.1 |
| 20260505190055 | 15 | 218 | 3.2 | 4.8 | 0.00 | 1.60 | 1.45 | 93 | 1014.8 |
| 20260505185537 | 15 | 142 | 4.8 | 9.7 | 0.00 | 1.60 | 1.45 | 93 | 1014.9 |
| 20260505184054 | 15 | 206 | 3.2 | 4.8 | 0.00 | 1.60 | 1.45 | 93 | 1014.9 |
| 20260505183054 | 15 | 30 | 1.6 | 4.8 | 0.00 | 1.60 | 1.45 | 93 | 1015.1 |
| 20260505182054 | 16 | 120 | 0.0 | 6.4 | 0.00 | 1.60 | 1.45 | 92 | 1015.1 |
| 20260505181053 | 16 | 192 | 1.6 | 4.8 | 0.00 | 1.60 | 1.45 | 92 | 1015.1 |
| 20260505180523 | 16 | 162 | 1.6 | 4.8 | 0.00 | 1.60 | 1.45 | 91 | 1014.9 |
| 20260505175043 | 16 | 96 | 0.0 | 9.7 | 0.00 | 1.60 | 1.45 | 90 | 1015.1 |
| 20260505174042 | 17 | 108 | 1.6 | 9.7 | 0.00 | 1.60 | 1.45 | 90 | 1015.3 |
| 20260505173042 | 17 | 156 | 0.0 | 11.3 | 0.00 | 1.60 | 1.45 | 87 | 1015.3 |
| 20260505172043 | 17 | 163 | 3.2 | 9.7 | 0.00 | 1.60 | 1.45 | 87 | 1015.1 |
| 20260505171042 | 16 | 146 | 0.0 | 3.2 | 0.00 | 1.60 | 1.45 | 90 | 1015.1 |
| 20260505170043 | 16 | 150 | 3.2 | 6.4 | 0.00 | 1.60 | 1.45 | 91 | 1015.2 |
| 20260505165041 | 17 | 164 | 6.4 | 6.4 | 0.00 | 1.60 | 1.45 | 91 | 1015.1 |
| 20260505164042 | 16 | 143 | 1.6 | 6.4 | 0.00 | 1.60 | 1.45 | 93 | 1015.2 |
| 20260505163043 | 16 | 155 | 3.2 | 9.7 | 0.00 | 1.60 | 1.45 | 95 | 1015.3 |
| 20260505162041 | 16 | 187 | 4.8 | 9.7 | 0.00 | 1.60 | 1.45 | 95 | 1015.3 |
| 20260505161043 | 16 | 127 | 4.8 | 9.7 | 0.00 | 1.60 | 1.45 | 95 | 1015.4 |
| 20260505160518 | 16 | 294 | 4.8 | 9.7 | 0.00 | 1.60 | 1.45 | 95 | 1015.4 |
| 20260505153043 | 15 | 101 | 1.6 | 4.8 | 0.00 | 1.60 | 1.45 | 96 | 1015.6 |
| 20260505152042 | 15 | 148 | 1.6 | 6.4 | 0.03 | 1.60 | 1.45 | 96 | 1015.6 |
| 20260505151043 | 15 | 75 | 3.2 | 9.7 | 0.03 | 1.60 | 1.45 | 96 | 1015.8 |
| 20260505124042 | 16 | 151 | 4.8 | 6.4 | 0.00 | 1.40 | 1.24 | 91 | 1016.2 |
| 20260505123042 | 17 | 167 | 4.8 | 6.4 | 0.00 | 1.40 | 1.24 | 90 | 1016.2 |
| 20260505122042 | 16 | 120 | 1.6 | 4.8 | 0.00 | 1.40 | 1.24 | 89 | 1016.2 |
| 20260505121530 | 16 | 129 | 0.0 | 6.4 | 0.00 | 1.40 | 1.24 | 87 | 1016.1 |
| 20260505120042 | 16 | 79 | 1.6 | 6.4 | 0.00 | 1.40 | 1.24 | 88 | 1016.2 |
| 20260505115042 | 16 | 144 | 6.4 | 9.7 | 0.00 | 1.40 | 1.24 | 89 | 1016.2 |
| 20260505114516 | 16 | 96 | 3.2 | 9.7 | 0.00 | 1.45 | 1.24 | 91 | 1016.2 |
| 20260505113043 | 16 | 187 | 4.8 | 9.7 | 0.00 | 1.52 | 1.24 | 91 | 1016.2 |
| 20260505112042 | 16 | 147 | 1.6 | 4.8 | 0.00 | 1.57 | 1.24 | 90 | 1016.2 |
| 20260505111043 | 16 | 135 | 3.2 | 6.4 | 0.00 | 1.60 | 1.24 | 90 | 1015.9 |
| 20260505102042 | 15 | 116 | 0.0 | 3.2 | 0.13 | 1.85 | 1.24 | 96 | 1015.4 |
| 20260505101042 | 15 | 94 | 1.6 | 3.2 | 0.18 | 1.85 | 1.24 | 96 | 1015.4 |
| 20260505100055 | 15 | 7 | 0.0 | 4.8 | 0.20 | 1.85 | 1.24 | 96 | 1015.6 |
| 20260505095042 | 14 | 343 | 3.2 | 3.2 | 0.20 | 1.80 | 1.19 | 96 | 1015.6 |
| 20260505094042 | 14 | 350 | 3.2 | 3.2 | 0.20 | 1.75 | 1.14 | 96 | 1015.6 |
| 20260505093955 | 14 | 346 | 3.2 | 4.8 | 0.20 | 1.73 | 1.12 | 96 | 1015.5 |
| 20260505092524 | 14 | 351 | 3.2 | 4.8 | 0.23 | 1.73 | 1.12 | 96 | 1015.5 |
| 20260505091043 | 14 | 338 | 1.6 | 3.2 | 0.20 | 1.68 | 1.07 | 96 | 1015.3 |
| 20260505090043 | 14 | 357 | 3.2 | 4.8 | 0.20 | 1.65 | 1.04 | 96 | 1015.6 |
| 20260505090000 | 14 | 337 | 1.6 | 4.8 | 0.18 | 1.60 | 0.99 | 96 | 1015.5 |
| 20260505084043 | 14 | 335 | 1.6 | 4.8 | 0.15 | 1.55 | 0.94 | 96 | 1015.6 |
| 20260505083042 | 14 | 338 | 1.6 | 3.2 | 0.15 | 1.52 | 0.91 | 95 | 1015.3 |
| 20260505082042 | 14 | 350 | 3.2 | 4.8 | 0.13 | 1.50 | 0.89 | 95 | 1015.2 |
| 20260505081044 | 14 | 356 | 0.0 | 3.2 | 0.10 | 1.47 | 0.86 | 95 | 1015.1 |
| 20260505080042 | 14 | 342 | 1.6 | 4.8 | 0.10 | 1.45 | 0.84 | 94 | 1015.3 |
| 20260505075042 | 14 | 340 | 3.2 | 6.4 | 0.10 | 1.42 | 0.84 | 93 | 1015.2 |
| 20260505074042 | 14 | 344 | 6.4 | 9.7 | 0.08 | 1.40 | 0.79 | 93 | 1014.9 |
| 20260505073042 | 14 | 8 | 4.8 | 9.7 | 0.08 | 1.37 | 0.76 | 93 | 1014.8 |
| 20260505072042 | 14 | 342 | 6.4 | 9.7 | 0.10 | 1.37 | 0.76 | 93 | 1014.9 |
| 20260505071043 | 14 | 347 | 6.4 | 6.4 | 0.13 | 1.37 | 0.76 | 94 | 1014.7 |
| 20260505070042 | 13 | 340 | 6.4 | 9.7 | 0.13 | 1.35 | 0.74 | 95 | 1014.7 |
| 20260505065529 | 13 | 341 | 3.2 | 4.8 | 0.10 | 1.32 | 0.71 | 95 | 1014.6 |
| 20260505064042 | 13 | 340 | 3.2 | 4.8 | 0.10 | 1.32 | 0.71 | 95 | 1014.8 |
| 20260505063042 | 13 | 344 | 1.6 | 3.2 | 0.10 | 1.30 | 0.69 | 95 | 1014.8 |
| 20260505062042 | 13 | 337 | 1.6 | 4.8 | 0.08 | 1.27 | 0.66 | 94 | 1014.8 |
| 20260505061042 | 13 | 333 | 0.0 | 3.2 | 0.08 | 1.24 | 0.64 | 94 | 1014.7 |
| 20260505060042 | 14 | 1 | 3.2 | 9.7 | 0.05 | 1.22 | 0.61 | 93 | 1014.8 |
| 20260505055042 | 14 | 328 | 6.4 | 12.9 | 0.08 | 1.22 | 0.61 | 91 | 1014.4 |
| 20260505054042 | 14 | 352 | 9.7 | 12.9 | 0.08 | 1.22 | 0.61 | 92 | 1014.4 |
| 20260505053042 | 14 | 354 | 8.0 | 12.9 | 0.05 | 1.19 | 0.58 | 93 | 1014.4 |
| 20260505052043 | 14 | 342 | 6.4 | 11.3 | 0.05 | 1.19 | 0.58 | 94 | 1014.4 |
| 20260505051529 | 14 | 338 | 6.4 | 6.4 | 0.05 | 1.17 | 0.56 | 96 | 1014.5 |
| 20260505041042 | 14 | 342 | 1.6 | 3.2 | 0.25 | 1.12 | 0.51 | 96 | 1015.1 |
| 20260505040045 | 14 | 344 | 1.6 | 3.2 | 0.30 | 1.09 | 0.48 | 96 | 1015.2 |